Regional Weather Roundup
Issued by NWS Sterling, VA

Home | Current Version | Previous Version | Text Only | Print | Product List | Glossary On
Versions: 1 2 3 4 5 6 7 8 9 10 11 12 13 14 15 16 17 18 19 20 21 22 23 24 25 26 27
000
ASUS41 KLWX 230811
RWRLWX

REGIONAL WEATHER ROUNDUP
NATIONAL WEATHER SERVICE BALTIMORE MD/WASHINGTON DC
400 AM EDT MON OCT 23 2017

Note: "FAIR" indicates few or no clouds below 12,000 feet
with no significant weather and/or obstructions to visibility.
 TC=TEMPERATURE CELSIUS

 * =Non NWS site. Station does not report precipitation (e.g. rain,
    snow, etc.), thunder, or fog.

DCZ001-MDZ009-015-VAZ040>042-051-053>054-230900-
WASHINGTON METRO

CITY           SKY/WX    TMP DP  RH WIND       PRES   REMARKS
WASHINGTON NAT CLOUDY    60  59  96 NE8       30.27F
DULLES         MOCLDY    51  51 100 E3        30.26F
ANDREWS AFB    FOG       59  58  99 CALM      30.26S VSB 3/8
FT BELVOIR     PTCLDY    54  52  94 CALM      30.26F
QUANTICO       MOCLDY    59  58  96 CALM      30.27F
COLLEGE PARK*  CLOUDY    55  54  98 CALM      30.27S VSB 1/4
LEESBURG*      MOCLDY    54  54 100 CALM      30.28S
MANASSAS*      CLOUDY    56  55  97 CALM      30.27S
GAITHERSBURG*  CLOUDY    54  54 100 CALM      30.27F

$$

MDZ006>007-011-014-230900-
BALTIMORE METRO

CITY           SKY/WX    TMP DP  RH WIND       PRES   REMARKS
BWI AIRPORT    CLOUDY    57  57 100 CALM      30.27F
MD SCIENCE CTR   N/A     62  59  90 MISG      30.29S
MARTIN STATE   FOG       57  57 100 CALM      30.30S VSB 1/2
ANNAPOLIS      PTCLDY    65  65 100 E6        30.27S
FORT MEADE*    CLOUDY    54  54 100 CALM      30.30S VSB 1/2

$$

MDZ012-015-019>023-230900-
MARYLAND EASTERN SHORE

CITY           SKY/WX    TMP DP  RH WIND       PRES   REMARKS
OCEAN CITY     CLOUDY    67  66  97 SE6       30.29F
SALISBURY      CLOUDY    61  61 100 E3        30.28F FOG
EASTON*        FOG       61  59  94 SE3       30.31F VSB 1/2

$$

MDZ017>025-230900-
SOUTHERN MARYLAND

CITY           SKY/WX    TMP DP  RH WIND       PRES   REMARKS
PATUXENT RIVER PTCLDY    66  66 100 SE5       30.26F
ST INIGOES     FOG       59  59 100 E3        30.26S VSB 1/2
LEONARDTOWN*   NOT AVBL

$$

MDZ003>005-230900-
NORTH CENTRAL MARYLAND

CITY           SKY/WX    TMP DP  RH WIND       PRES   REMARKS
FREDERICK*     PTCLDY    52  52 100 CALM      30.30S
HAGERSTOWN APT PTCLDY    60  55  83 S8        30.25F
WESTMINSTER*   FOG       61  61 100 SE3       30.28R VSB 1/2

$$

MDZ501>502-230900-
WESTERN MARYLAND

CITY           SKY/WX    TMP DP  RH WIND       PRES   REMARKS
OAKLAND*       CLOUDY    54  50  87 SE16      30.18F
CUMBERLAND*    CLOUDY    57  54  88 NW6       30.26S

$$

VAZ025>031-230900-
SHENANDOAH VALLEY

CITY           SKY/WX    TMP DP  RH WIND       PRES   REMARKS
WINCHESTER*    PTCLDY    55  54  94 SE5       30.24F
FRONT ROYAL*   CLOUDY    59  55  88 CALM      30.23F
LURAY*         MOCLDY    59  55  88 SW3       30.24F
NEW MARKET*    CLOUDY    51  49  95 CALM      30.23S
STAUNTON*      PTCLDY    56  53  88 CALM      30.26S
WAYNESBORO*    CLOUDY    57  56  94 E8        30.25S

$$

WVZ021-048>050-054>055-230900-
EASTERN WEST VIRGINIA PANHANDLE

CITY           SKY/WX    TMP DP  RH WIND       PRES   REMARKS
MARTINSBURG    PTCLDY    54  52  93 CALM      30.23F
PETERSBURG*    PTCLDY    49  47  96 CALM      30.21F

$$

VAZ036>039-050-230900-
CENTRAL FOOTHILLS

CITY           SKY/WX    TMP DP  RH WIND       PRES   REMARKS
CHARLOTTESVILL CLOUDY    58  56  93 CALM      30.25F
CULPEPER*      PTCLDY    51  49  94 CALM      30.27S FOG
ORANGE*        CLOUDY    52  50  93 CALM      30.26S
GORDONSVILLE*  CLOUDY    53  53 100 CALM      30.25F
WARRENTON*     CLOUDY    56  53  91 CALM      30.26F FOG

$$

VAZ055>057-230900-
NORTH AND CENTRAL PIEDMONT

CITY           SKY/WX    TMP DP  RH WIND       PRES   REMARKS
FREDERICKSBRG* FOG       55  55 100 CALM      30.25F VSB<1/4
STAFFORD*      CLOUDY    51  51 100 CALM      30.29F

$$

NCZ024-NYZ072-PAZ021-071-VAZ022-071-230900-
OTHER REGIONAL OBSERVATIONS

CITY           SKY/WX    TMP DP  RH WIND       PRES   REMARKS
NEW YORK CITY  CLOUDY    62  60  93 S5        30.35F
PHILADELPHIA   FOG       61  60  97 NE5       30.31F VSB 1/2
PITTSBURGH     CLOUDY    61  51  70 SE6       30.12F
ROANOKE        CLOUDY    62  55  77 SE9       30.23F
RICHMOND       FOG       60  60 100 SE3       30.25F VSB 1/4
RALEIGH        PTCLDY    62  61  96 E7        30.22F

$$

ANZ530>537-230900-
MARINE OBSERVATIONS

STATION/POSITION TIME  TEMP    WIND        PRES
                       AIR SEA DIR/SP/G
                 (UTC) (F)     (DEG/KT/KT) (MB)
THOMAS PT LIGHT  0800   64 67  130/  7/  8   N/A
BALT KEY BRIDGE  0748   61      70/  4/  5 1025.2F
COVE POINT       0748   66     160/  8/  9 1025.5F
LEWISETTA        0748   63 67  340/  1/  2 1024.7F
SOLOMONS ISLAND  0742   67 69  140/  3/  3 1024.4F
PINEY POINT      0730          150/  8/  9   N/A

$$





USA.gov is the U.S. government's official web portal to all federal, state and local government web resources and services.